Wind_Speed
18 18 18 17 18 14 11 10 8 7 7 6 6 5 5 6 6 5 6 6 6 6 6 5 5 4 4 4 4 4 5 5 5 6 6 6 7 7 7 8 8 8 8 8 8 8 8 7 7
18 17 18 19 16 12 10 10 9 8 7 6 6 6 6 5 5 5 5 5 5 5 5 5 5 4 4 3 3 3 3 4 4 4 5 5 6 6 7 7 7 7 7 7 7 7 7 7 7
17 16 19 17 11 10 10 9 9 9 8 7 6 6 6 5 5 4 4 5 4 4 4 4 4 4 3 3 2 2 2 3 3 3 3 4 5 5 6 6 6 6 6 6 6 7 7 7 6
17 19 19 13 9 9 9 9 9 9 9 7 7 6 6 5 5 4 4 4 4 4 4 4 4 3 3 3 2 2 2 2 2 2 3 3 4 4 4 5 5 5 5 6 6 6 6 6 6
19 19 14 9 9 8 8 8 9 9 8 7 7 7 6 5 5 4 3 3 3 4 4 3 4 3 3 3 2 2 1 1 1 2 2 2 3 3 4 4 4 5 5 5 5 5 5 5 5
19 15 8 7 7 8 8 8 8 8 9 8 8 7 7 6 5 4 3 3 3 3 3 3 3 3 3 3 2 2 2 1 1 1 1 1 2 2 3 3 4 4 4 5 5 5 4 5 5
17 13 7 7 7 6 6 7 8 9 9 9 8 8 8 7 6 5 4 4 3 3 3 3 3 3 3 3 3 3 2 2 1 1 1 1 1 1 2 3 3 3 4 4 4 4 4 4 4
15 14 8 5 5 5 6 6 7 9 9 9 9 9 9 8 7 6 6 5 4 3 3 3 3 3 3 4 3 3 3 2 2 2 2 1 1 1 1 2 2 3 3 3 3 3 3 3 4
12 11 6 2 3 5 5 6 6 8 8 9 9 9 9 9 7 7 6 5 5 4 3 3 4 4 4 4 4 4 4 3 3 3 2 2 1 1 0 1 1 2 2 2 2 3 3 3 3
9 8 3 2 2 4 5 6 7 8 8 8 9 10 9 9 8 8 7 6 6 5 4 4 4 4 4 4 4 4 4 4 3 3 3 3 2 2 1 1 1 1 1 1 2 2 2 3 3
6 6 2 0 0 2 4 6 6 8 8 9 10 10 10 9 8 8 8 7 7 6 5 5 5 5 4 5 5 4 4 4 4 3 3 3 3 3 2 1 1 1 1 1 1 2 2 2 2
3 5 3 1 1 2 2 3 4 6 8 9 10 10 10 9 9 9 9 8 8 7 6 6 6 5 5 5 5 5 5 5 4 4 4 4 4 3 3 2 2 3 2 2 2 2 2 2 1
3 2 1 0 1 1 2 3 5 6 8 9 9 10 10 10 9 9 9 9 9 8 7 7 7 6 6 6 6 6 5 5 5 4 4 4 4 4 4 4 4 4 3 3 3 3 2 2 2
5 2 1 2 3 2 2 3 5 7 8 9 9 10 11 10 10 10 10 10 10 9 8 7 7 7 7 7 6 6 6 5 5 5 5 5 5 5 5 4 4 4 4 3 3 3 3 3 3
4 2 2 3 4 3 3 2 4 8 9 10 10 11 11 11 10 10 11 11 10 10 9 8 8 7 7 7 7 7 7 7 6 6 6 6 6 6 6 6 6 6 5 5 4 4 4 4 4
2 1 3 5 6 6 5 4 4 8 9 10 11 10 11 11 10 10 11 12 11 11 10 9 8 7 8 8 8 8 7 7 7 7 7 8 8 8 8 8 8 8 7 6 6 6 5 5 5
2 3 5 6 8 7 6 6 6 7 8 10 11 10 11 11 10 10 11 11 11 11 11 10 10 9 9 9 9 9 8 7 7 7 7 8 8 9 9 9 9 9 8 8 8 7 7 6 7
6 6 8 8 9 8 7 7 7 8 8 10 11 11 11 11 11 11 11 11 11 11 12 11 10 10 10 10 10 9 9 8 9 8 8 7 8 9 10 10 10 10 9 9 8 8 8 8 8
10 10 10 12 12 9 9 9 8 9 9 10 11 12 12 11 11 11 11 11 11 12 12 12 11 11 11 11 12 11 10 10 10 10 9 9 9 9 10 9 9 9 10 10 10 9 9 9 9
13 12 12 12 13 9 8 9 8 9 11 12 12 12 13 12 12 12 11 12 12 12 13 13 14 13 12 13 13 12 11 11 11 11 11 9 10 9 9 9 8 8 10 10 10 11 11 11 11
14 12 12 12 14 10 8 9 11 12 11 12 13 13 13 12 12 12 11 12 12 12 13 13 15 14 13 13 13 12 11 12 12 11 11 10 10 10 9 9 9 9 10 11 12 12 12 12 12
15 14 14 14 13 10 8 10 13 15 14 13 12 13 13 13 13 12 11 12 12 13 13 14 15 15 15 15 13 12 12 13 13 12 12 11 11 11 10 9 9 10 11 12 12 13 13 14 13
17 16 15 14 13 11 10 10 12 16 15 13 12 13 13 13 13 13 12 12 13 13 14 15 15 16 16 15 14 13 13 13 14 13 12 11 11 11 10 10 11 11 11 12 13 14 15 15 15
18 16 15 14 13 14 12 12 13 15 15 14 14 14 13 14 14 13 13 13 14 14 14 15 15 16 16 16 15 14 14 14 15 14 14 12 12 11 11 11 12 12 13 13 14 14 15 16 16
19 17 15 13 13 12 11 13 16 16 16 15 15 16 15 15 14 14 14 13 14 15 15 15 16 16 17 17 17 15 14 15 15 15 14 13 13 12 11 11 12 12 13 13 14 15 15 16 16
21 19 17 14 12 12 12 13 14 16 17 17 16 16 17 15 14 15 15 14 14 15 16 16 16 16 17 17 17 17 15 15 15 15 14 14 13 13 12 12 12 13 13 14 15 16 15 16 17
22 21 18 16 13 14 14 14 15 17 17 18 17 17 16 16 15 15 15 14 15 15 16 16 16 17 16 17 17 17 16 15 15 15 15 14 14 13 12 12 12 12 13 14 15 15 15 16 17
24 21 21 21 19 17 15 16 16 19 17 18 16 15 16 16 15 15 16 15 15 15 16 17 17 17 16 16 17 18 17 17 16 16 15 15 15 15 13 13 13 12 12 13 13 14 15 16 17
25 24 24 23 21 17 16 15 15 19 20 19 18 17 16 16 16 15 17 16 13 15 17 17 17 17 17 17 17 17 18 18 17 16 16 16 16 15 14 14 13 12 12 12 13 14 15 15 16
25 25 25 25 24 22 18 17 16 18 19 19 18 17 17 17 16 16 16 16 16 16 16 16 17 17 17 17 17 18 18 18 18 17 17 16 15 15 14 14 14 14 13 13 14 14 15 15 16
Wind_Direction
80 79 76 71 65 61 60 62 58 54 61 64 59 60 62 67 71 75 74 80 80 77 73 69 65 67 68 73 86 93 96 99 100 99 98 99 101 102 102 102 101 101 100 98 96 95 93 94 94
82 81 74 65 61 51 51 52 49 48 54 57 56 54 57 64 70 72 70 73 73 68 63 61 55 49 47 56 75 89 94 97 99 99 98 99 102 104 104 104 105 104 102 100 99 96 95 94 94
84 78 68 62 55 44 46 46 47 44 49 50 50 49 51 57 64 65 62 64 65 59 55 52 48 39 36 39 50 69 82 90 93 93 97 100 102 105 107 106 107 108 106 104 103 101 97 95 96
85 74 68 63 47 42 46 44 40 40 41 42 45 46 49 54 57 59 58 56 52 47 44 39 34 26 22 19 25 43 64 74 85 87 93 98 99 101 106 106 108 107 106 105 105 104 101 97 98
84 72 63 55 46 44 48 43 35 38 38 40 43 41 41 45 42 42 41 43 39 36 35 29 21 14 9 6 15 29 48 61 69 76 85 96 98 97 101 101 108 108 105 105 106 105 105 103 100
84 73 57 42 40 40 37 36 32 32 35 34 38 37 33 32 33 31 28 26 26 26 29 23 11 3 359 351 349 353 343 337 17 38 54 73 86 92 98 98 104 109 106 105 107 107 111 110 106
92 84 59 32 30 34 35 29 26 25 27 28 29 30 28 27 27 29 28 21 16 14 18 15 4 356 350 343 341 343 341 341 331 326 351 19 47 86 104 104 106 108 108 107 109 110 111 116 110
103 98 75 33 19 20 23 17 22 23 23 28 28 28 29 27 25 27 25 21 14 6 5 7 1 352 347 340 337 335 326 325 323 319 320 329 346 21 115 117 114 109 108 110 112 109 114 116 116
97 98 101 82 30 6 10 5 16 28 27 31 31 28 28 27 25 24 21 19 16 8 1 5 357 352 342 336 333 328 318 313 316 311 300 296 307 323 152 143 129 118 112 117 126 119 116 123 122
93 97 122 126 42 0 6 10 13 13 15 25 29 25 23 24 27 27 25 21 18 10 359 358 357 355 347 341 334 325 316 311 304 302 299 289 282 284 226 202 190 162 137 138 139 129 123 124 122
110 121 137 341 17 16 12 8 7 360 4 5 9 17 17 19 24 27 25 19 12 4 356 350 353 350 346 342 339 325 318 317 303 295 302 294 284 275 259 245 247 250 241 205 184 154 149 151 132
135 144 166 188 2 49 9 354 356 358 357 359 3 9 13 15 19 24 23 19 12 4 358 354 356 348 343 340 335 330 324 314 301 298 304 298 286 281 271 255 265 272 263 242 222 206 200 200 190
176 150 205 283 346 353 353 340 340 348 351 352 4 9 9 12 17 20 19 15 11 8 2 358 354 348 343 337 331 327 332 325 317 307 302 298 290 282 270 268 275 271 267 258 241 230 225 226 220
193 193 244 295 327 353 342 328 338 341 343 347 358 4 4 8 12 16 16 14 10 4 359 358 356 352 349 341 331 325 326 321 320 314 306 297 286 283 274 270 279 280 268 248 239 240 247 247 233
183 193 264 291 310 302 296 298 334 331 334 341 349 355 1 3 5 10 11 9 6 4 1 360 358 355 355 350 339 330 326 315 313 307 295 291 282 280 277 270 273 276 272 261 252 249 253 254 249
167 216 268 275 284 283 294 290 310 321 331 338 342 350 356 359 359 2 6 7 6 4 2 359 356 354 354 351 347 342 331 319 313 311 297 289 280 276 272 267 267 268 265 262 258 254 250 253 254
217 238 249 261 278 275 286 292 289 305 317 328 336 344 349 351 354 354 358 1 1 359 357 354 352 352 350 347 344 347 342 332 324 318 305 293 284 279 272 265 265 265 264 262 256 254 251 254 255
223 232 243 249 266 268 265 268 277 291 309 319 328 336 339 341 345 347 350 353 353 350 350 350 351 349 346 343 340 341 339 331 323 322 320 306 291 284 276 268 263 263 264 264 258 256 255 254 256
210 216 230 234 248 257 256 265 275 291 306 309 316 326 329 333 337 341 344 346 346 347 345 347 348 343 341 341 338 335 335 330 324 320 317 313 304 291 279 268 266 263 261 262 260 256 257 257 258
213 216 235 251 254 253 252 261 274 287 300 301 305 313 319 326 332 340 340 341 342 344 345 346 345 341 339 335 333 330 329 326 324 319 318 315 308 299 282 277 270 266 261 258 258 255 257 260 260
218 220 229 242 254 254 257 268 271 275 289 300 304 306 311 319 325 331 336 336 338 336 337 339 340 338 335 336 331 326 326 325 323 321 316 312 304 303 289 280 274 271 263 259 260 257 259 262 261
222 227 231 237 246 248 256 265 272 274 285 295 301 302 305 312 320 322 327 330 332 332 332 334 334 335 335 333 330 325 325 324 322 320 314 310 306 303 297 287 282 276 266 263 262 262 263 264 266
222 229 232 239 248 246 247 257 269 277 278 284 293 295 299 304 307 313 320 324 327 329 330 328 328 330 330 331 331 328 324 323 323 321 318 311 307 304 299 287 280 278 277 267 265 266 266 265 265
226 230 231 233 241 247 244 247 262 267 271 268 282 287 289 299 297 303 312 319 323 324 326 327 326 326 326 326 327 324 322 321 322 321 321 316 311 307 304 295 286 283 281 274 269 270 271 267 267
226 227 231 238 246 254 251 249 256 264 269 268 277 285 288 296 300 306 310 316 320 322 324 325 326 323 324 324 324 322 318 319 322 322 321 318 315 309 304 297 289 286 281 275 272 272 271 269 269
229 224 224 230 252 269 261 253 254 263 268 269 274 280 289 294 297 300 305 308 313 317 319 322 323 322 322 323 324 324 321 321 322 321 324 322 320 314 304 300 292 287 282 278 276 275 273 271 268
228 227 223 229 239 255 260 251 252 266 270 273 275 278 285 290 293 296 302 305 308 313 317 321 322 322 321 322 323 325 326 323 321 321 320 322 321 319 311 301 294 291 288 286 281 278 275 274 272
223 227 225 223 235 247 259 256 255 266 273 281 280 278 281 286 291 294 297 300 303 312 316 318 320 321 321 320 320 324 325 323 321 319 317 319 320 317 313 308 301 295 293 291 289 285 282 279 277
223 222 224 225 226 238 254 262 261 259 269 277 279 274 276 283 286 289 291 297 304 309 313 315 317 319 319 319 319 321 323 322 320 319 317 316 317 316 312 307 303 297 295 293 292 292 290 287 285
227 227 227 228 227 226 237 260 255 255 264 270 274 276 278 282 285 288 289 294 299 304 310 312 313 315 316 317 319 319 320 320 321 320 319 316 315 315 314 311 305 300 297 296 296 295 293 292 291
Height
5906 5905 5905 5904 5903 5904 5904 5904 5904 5903 5903 5902 5901 5901 5900 5900 5901 5902 5899 5898 5898 5898 5898 5898 5899 5899 5899 5898 5898 5897 5897 5896 5896 5896 5895 5895 5895 5895 5895 5895 5895 5895 5895 5895 5896 5896 5896 5896 5896
5909 5909 5908 5906 5908 5908 5907 5907 5906 5905 5905 5904 5903 5902 5902 5901 5902 5901 5900 5900 5900 5900 5900 5900 5900 5900 5900 5900 5899 5899 5898 5898 5897 5897 5897 5896 5896 5896 5896 5896 5896 5897 5897 5897 5897 5897 5897 5898 5898
5911 5910 5910 5910 5912 5911 5911 5910 5908 5907 5907 5906 5905 5905 5904 5904 5903 5903 5902 5902 5902 5901 5901 5901 5901 5901 5901 5901 5900 5900 5900 5899 5899 5899 5898 5898 5898 5898 5898 5898 5898 5898 5898 5898 5898 5899 5899 5899 5899
5913 5912 5913 5917 5915 5914 5913 5912 5911 5910 5909 5908 5907 5907 5905 5905 5905 5904 5903 5903 5903 5903 5902 5902 5903 5903 5902 5902 5902 5901 5901 5901 5900 5900 5900 5899 5899 5899 5899 5899 5899 5899 5899 5899 5900 5900 5900 5900 5901
5914 5914 5917 5918 5918 5917 5916 5914 5913 5912 5911 5910 5909 5908 5907 5907 5906 5905 5905 5904 5904 5904 5904 5903 5904 5904 5903 5903 5903 5903 5902 5902 5902 5901 5901 5901 5901 5900 5900 5900 5900 5900 5900 5901 5901 5901 5902 5902 5902
5917 5918 5923 5921 5920 5920 5918 5917 5915 5914 5913 5911 5911 5910 5909 5908 5907 5906 5906 5905 5905 5905 5905 5904 5904 5904 5904 5904 5904 5904 5903 5903 5903 5902 5902 5902 5902 5901 5901 5901 5901 5901 5901 5902 5902 5902 5902 5903 5903
5920 5922 5925 5923 5923 5922 5921 5919 5917 5916 5915 5914 5912 5911 5910 5909 5908 5908 5907 5906 5906 5906 5905 5905 5905 5905 5905 5905 5904 5904 5904 5904 5903 5903 5903 5903 5903 5902 5902 5902 5902 5902 5902 5903 5903 5903 5903 5903 5904
5922 5924 5926 5926 5925 5924 5922 5920 5919 5918 5917 5916 5914 5913 5912 5911 5910 5909 5908 5907 5907 5906 5906 5906 5905 5905 5905 5905 5905 5905 5905 5904 5904 5904 5904 5903 5903 5903 5903 5903 5903 5903 5904 5904 5904 5904 5904 5904 5905
5925 5928 5928 5928 5927 5925 5924 5922 5920 5918 5918 5917 5916 5915 5914 5913 5911 5910 5909 5908 5908 5907 5906 5906 5906 5906 5906 5906 5905 5905 5905 5905 5905 5904 5904 5904 5904 5904 5904 5904 5904 5904 5904 5905 5905 5905 5905 5905 5906
5927 5929 5929 5929 5928 5927 5925 5923 5921 5919 5919 5917 5916 5916 5915 5914 5913 5911 5910 5910 5909 5908 5907 5907 5907 5906 5906 5906 5906 5905 5905 5905 5905 5905 5905 5905 5905 5905 5905 5905 5905 5905 5905 5905 5906 5906 5906 5906 5906
5928 5930 5930 5929 5929 5928 5927 5925 5924 5921 5920 5919 5918 5917 5916 5915 5914 5913 5912 5911 5910 5909 5908 5908 5907 5907 5907 5907 5906 5906 5906 5905 5905 5905 5905 5905 5905 5905 5905 5906 5905 5906 5906 5906 5906 5906 5907 5907 5907
5929 5929 5930 5930 5929 5929 5928 5927 5926 5924 5922 5921 5919 5918 5918 5916 5915 5914 5913 5912 5911 5910 5909 5908 5908 5907 5907 5907 5907 5906 5906 5905 5905 5905 5905 5905 5905 5905 5906 5906 5906 5906 5906 5906 5906 5907 5907 5907 5908
5929 5930 5930 5930 5929 5929 5928 5928 5927 5925 5923 5922 5920 5919 5918 5917 5916 5915 5914 5913 5912 5911 5910 5909 5909 5908 5907 5907 5906 5906 5906 5905 5905 5905 5905 5905 5905 5905 5905 5905 5906 5906 5906 5906 5906 5907 5907 5908 5908
5929 5929 5930 5930 5930 5929 5929 5928 5927 5926 5925 5923 5921 5920 5919 5919 5917 5916 5915 5914 5912 5911 5910 5910 5909 5908 5908 5907 5906 5906 5905 5905 5905 5904 5904 5904 5905 5905 5905 5905 5905 5906 5906 5906 5906 5907 5907 5908 5908
5927 5929 5930 5930 5930 5930 5929 5928 5928 5927 5926 5924 5923 5921 5920 5919 5918 5917 5916 5914 5913 5912 5911 5910 5910 5909 5908 5907 5906 5906 5905 5905 5904 5904 5904 5904 5904 5904 5904 5904 5905 5905 5905 5905 5906 5906 5906 5907 5908
5927 5929 5931 5932 5932 5930 5930 5929 5927 5927 5927 5925 5923 5922 5921 5920 5919 5918 5917 5915 5914 5913 5912 5911 5910 5909 5909 5908 5907 5906 5905 5904 5904 5903 5903 5903 5903 5903 5903 5903 5904 5904 5904 5904 5905 5905 5906 5906 5907
5927 5930 5932 5932 5931 5931 5930 5929 5927 5928 5927 5926 5924 5922 5922 5920 5919 5918 5917 5916 5915 5913 5912 5911 5910 5910 5909 5908 5907 5906 5905 5904 5903 5902 5902 5902 5902 5902 5901 5902 5902 5902 5903 5903 5903 5904 5904 5905 5906
5929 5932 5933 5933 5931 5931 5930 5929 5928 5928 5927 5926 5924 5923 5922 5921 5920 5919 5917 5916 5915 5913 5912 5911 5910 5909 5909 5908 5907 5905 5904 5903 5902 5901 5901 5900 5900 5899 5899 5900 5900 5901 5901 5901 5902 5902 5903 5903 5904
5927 5930 5931 5931 5930 5930 5930 5929 5928 5928 5926 5926 5924 5923 5922 5921 5920 5918 5917 5916 5915 5914 5912 5911 5910 5909 5908 5907 5906 5905 5903 5902 5901 5900 5899 5899 5898 5897 5896 5897 5897 5898 5899 5900 5900 5900 5901 5902 5902
5923 5927 5928 5928 5929 5928 5929 5929 5928 5927 5927 5926 5924 5923 5921 5920 5919 5918 5917 5916 5915 5914 5913 5911 5910 5909 5907 5906 5905 5903 5902 5901 5900 5899 5898 5897 5896 5895 5894 5895 5895 5896 5897 5897 5898 5899 5899 5900 5900
5921 5924 5926 5927 5927 5926 5928 5928 5928 5927 5926 5925 5924 5922 5921 5920 5919 5918 5916 5915 5914 5913 5912 5911 5909 5908 5906 5905 5903 5902 5901 5900 5899 5897 5896 5895 5894 5894 5893 5893 5893 5894 5894 5895 5896 5896 5897 5897 5898
5919 5921 5923 5924 5925 5925 5927 5928 5927 5925 5925 5924 5923 5922 5920 5919 5918 5917 5916 5915 5913 5912 5911 5910 5909 5907 5905 5903 5902 5900 5899 5898 5897 5896 5895 5894 5893 5892 5891 5891 5892 5892 5892 5892 5893 5894 5894 5895 5895
5916 5918 5920 5921 5922 5923 5925 5926 5927 5924 5923 5922 5922 5921 5919 5918 5917 5915 5915 5914 5913 5911 5910 5909 5907 5906 5904 5902 5900 5899 5898 5896 5895 5894 5892 5892 5891 5890 5889 5889 5889 5889 5889 5890 5890 5891 5891 5891 5892
5912 5915 5916 5918 5920 5921 5922 5924 5924 5922 5921 5920 5919 5919 5917 5916 5914 5912 5912 5911 5911 5910 5909 5907 5906 5904 5903 5901 5899 5897 5896 5894 5893 5892 5890 5889 5888 5887 5887 5886 5886 5886 5887 5887 5887 5887 5888 5888 5889
5908 5912 5914 5915 5917 5919 5921 5921 5922 5921 5920 5919 5918 5916 5916 5915 5913 5912 5911 5910 5910 5908 5907 5906 5905 5903 5901 5899 5897 5895 5894 5893 5891 5890 5888 5887 5886 5885 5884 5884 5884 5883 5883 5883 5884 5884 5884 5884 5885
5904 5908 5912 5915 5917 5918 5918 5918 5919 5918 5917 5916 5916 5915 5914 5913 5913 5911 5910 5909 5908 5907 5906 5905 5903 5901 5899 5897 5896 5894 5892 5891 5890 5888 5887 5885 5883 5882 5882 5881 5881 5880 5880 5880 5880 5880 5880 5880 5881
5900 5904 5909 5912 5914 5916 5916 5916 5915 5914 5914 5914 5914 5913 5912 5912 5911 5910 5908 5908 5906 5905 5904 5903 5901 5900 5898 5896 5894 5892 5891 5889 5888 5886 5885 5883 5882 5880 5879 5878 5878 5877 5877 5877 5876 5876 5876 5876 5876
5897 5901 5905 5907 5910 5912 5913 5913 5912 5911 5911 5911 5911 5911 5910 5910 5909 5908 5906 5905 5903 5903 5902 5901 5899 5898 5896 5895 5893 5891 5889 5888 5886 5884 5883 5882 5880 5878 5877 5876 5875 5874 5874 5873 5873 5873 5873 5872 5872
5892 5896 5899 5903 5906 5909 5910 5912 5909 5908 5908 5908 5908 5907 5907 5906 5906 5905 5904 5902 5901 5901 5900 5899 5898 5896 5895 5893 5891 5889 5887 5886 5884 5882 5881 5879 5878 5876 5875 5874 5873 5872 5871 5870 5870 5870 5869 5868 5868
5887 5891 5895 5898 5901 5903 5906 5909 5904 5904 5904 5904 5905 5904 5903 5903 5903 5902 5901 5900 5899 5898 5898 5897 5895 5894 5892 5891 5889 5887 5885 5883 5881 5880 5878 5877 5875 5874 5872 5871 5870 5869 5868 5868 5867 5866 5865 5865 5864